Location: Bu�n Treun
(12.1333°N, 108.3167°E)
Time: 23:42:25
(UTC+00:00)

CENTAUR R/B - Pass Details

Date: 13 July 2020
Orbit: 756 x 1432 km, 63.5° (Epoch: 11 August)

Event Time Altitude Azimuth Distance (km) Brightness Sun altitude
Exits shadow 20:00:06 44° 16° (NNE) 1,135 3.0 -32.9°
Drops below altitude 10° 20:04:03 10° 22° (NNE) 2,546 5.3 -32.2°
Sets 20:06:43 0° 23° (NNE) 3,580 6.3 -31.6°
